Flag for U.S.A. Weather past 2 weeks in Warminster Township, Pennsylvania, U.S.A.

44 °F

Mostly cloudy.

Feels Like: 42 °F
Forecast: 36 / 49 °F
Wind: 5 mph from North

Location: Doylestown Airport

Current Time: Nov 29, 2015 at 2:52:29 AM

Latest Report: Nov 29, 2015 at 1:54 AM

Visibility: 10 mi

Pressure: 30.19 "Hg

Humidity: 79%

Dew point: 38 °F

Location of Warminster TownshipLocation

Historic Weather in Warminster Township — Graph


Warminster Township temperature yesterday

Maximum temperature yesterday: 58 °F (at 11:54 AM)
Minimum temperature yesterday: 45 °F (at 10:54 PM)
Average temperature yesterday: 51 °F

Past Weeks' High & Low Weather Summary

High66 °F (Nov 16, 2:54 PM)100% (Nov 19, 1:54 PM)30.81 "Hg (Nov 19, 1:54 PM)
Low22 °F (Nov 23, 11:54 PM)24% (Nov 20, 2:54 PM)29.88 "Hg (Nov 22, 12:54 AM)
Average45 °F66%30.29 "Hg
* Reported Nov 14 1:54 AM — Nov 29 1:54 AM, Warminster Township, Weather by CustomWeather, © 2015

Note: Actual official high and low records may vary slightly from our data, if they occured in-between our weather recording intervals... More about our weather records


Warminster Township weather history for previous 24 hours

Time TempWeatherWind HumidityBarometerVisibility
1:54 AM
Sun, Nov 29
44 °FMostly cloudy.5 mph79%30.19 "Hg10 mi
12:54 AM45 °FOvercast.6 mph80%30.20 "Hg10 mi
11:54 PM
Sat, Nov 28
45 °FMostly cloudy.5 mph80%30.19 "Hg10 mi
10:54 PM45 °FOvercast.6 mph82%30.20 "Hg10 mi
9:54 PM46 °FOvercast.5 mph86%30.20 "Hg10 mi
8:54 PM46 °FMostly cloudy.3 mph96%30.19 "Hg10 mi
7:54 PM48 °FOvercast.8 mph89%30.18 "Hg10 mi
6:54 PM49 °FOvercast.5 mph86%30.16 "Hg10 mi
5:54 PM49 °FOvercast.8 mph93%30.16 "Hg10 mi
4:54 PM51 °FMostly cloudy.3 mph100%30.15 "Hg10 mi
4:02 PM52 °FLight rain. Mostly cloudy.3 mph100%30.14 "Hg9 mi
2:54 PM54 °FLight rain. Overcast.5 mph93%30.14 "Hg10 mi
1:54 PM55 °FLight rain. Mostly cloudy.No wind87%30.13 "Hg10 mi
12:54 PM58 °FOvercast.3 mph67%30.12 "Hg10 mi
11:54 AM58 °FOvercast.No wind67%30.13 "Hg10 mi
10:54 AM55 °FPassing clouds.5 mph74%30.16 "Hg10 mi
9:54 AM54 °FOvercast.No wind77%30.19 "Hg10 mi
8:54 AM52 °FSunny.3 mph80%30.17 "Hg10 mi
7:54 AM51 °FPartly sunny.3 mph83%30.18 "Hg10 mi
6:54 AM49 °FPassing clouds.5 mph90%30.17 "Hg10 mi
5:54 AM49 °FClear.3 mph90%30.18 "Hg10 mi
4:54 AM49 °FClear.3 mph90%30.18 "Hg10 mi
3:54 AM50 °FClear.5 mph86%30.18 "Hg10 mi
2:54 AM50 °FClear.5 mph83%30.19 "Hg10 mi
Weather by CustomWeather, © 2015

See weather overviewHow to use our weather pages